User: anonymous   Login
Location: *
(40.7765°S, 106.5327°E)
Time: 08:07:21
(UTC+00:00)
Language:

Cosmos 1606 - Orbit

View from above orbital plane
View from above orbital plane
View from above satellite
View from above satellite

Ground track
Ground track

The orbit data is extracted from the following two-line orbital elements,

1 15369U 84111A   22229.04720746  .00002751  00000-0  12912-3 0  9999
2 15369  82.5249  63.2395 0016456 180.4432 179.6791 15.19111049 66462
Epoch (UTC): 17 August 2022 01:07:58
Eccentricity: 0.0016456
inclination: 82.5249°
perigee height: 497 km
apogee height: 520 km
right ascension of ascending node: 63.2395°
argument of perigee: 180.4432°
revolutions per day: 15.19111049
mean anomaly at epoch: 179.6791°
orbit number at epoch: 6646

The dashed part of the orbit path shows where the satellite is in the earth's shadow,  

DLR